sat.trackr.live / text

‹ back to catalog

PRAETORIAN SDA_618

NORAD 65581 · 2025-203S

PAYLOAD ACTIVE UNKNOWN

§ Identity

Operator
Country
US
Launch date
2025-09-10
Launch site
AFWTR
Launch vehicle
Mass (kg)
RCS (m²)

Purposes: military

External: N2YO · Heavens-Above · Gunter

§ Orbital elements

Epoch: 2026-09-20T00:37:21.076896Z

Period
104.03 min
Inclination
81.2987°
Eccentricity
0.0008781
Mean motion
13.84229857 rev/d
Perigee alt
942.5 km
Apogee alt
955.4 km
Semi-major
7,327.1 km
B*
7.9345e-5
RAAN
282.6425°
Arg perigee
300.5310°
Mean anomaly
59.4979°
Rev number
5,183

§ Raw data

PRAETORIAN SDA_6181 65581U 25203S   26263.02593839  .00000100  00000+0  79345-4 0  99972 65581  81.2987 282.6425 0008781 300.5310  59.4979 13.84229857 51836

JSON: /api/v1/satellites/65581 · /tle

For live sub-satellite position, see the globe view (requires WebGL).

§ Visibility from observer

Set your observer location to see the next 7 days of passes ≥ 10°. The values pass through the URL so the page stays shareable.

No JS? Fill the form by hand. The geolocation button needs JavaScript.